sat.trackr.live / text

‹ back to catalog

STARLINK-5564

NORAD 56134 · 2023-046AU

PAYLOAD ACTIVE UNKNOWN

§ Identity

Operator
Country
US
Launch date
2023-03-29
Launch site
AFETR
Launch vehicle
Mass (kg)
RCS (m²)

Purposes: comms

External: N2YO · Heavens-Above · Gunter

§ Orbital elements

Epoch: 2026-09-19T22:54:12.924864Z

Period
94.27 min
Inclination
43.0039°
Eccentricity
0.0001301
Mean motion
15.27579767 rev/d
Perigee alt
482.2 km
Apogee alt
483.9 km
Semi-major
6,861.2 km
B*
9.4075e-5
RAAN
129.6071°
Arg perigee
277.5877°
Mean anomaly
82.4827°
Rev number
19,190

§ Raw data

STARLINK-55641 56134U 23046AU  26262.95431626  .00002327  00000+0  94075-4 0  99902 56134  43.0039 129.6071 0001301 277.5877  82.4827 15.27579767191901

JSON: /api/v1/satellites/56134 · /tle

For live sub-satellite position, see the globe view (requires WebGL).

§ Visibility from observer

Set your observer location to see the next 7 days of passes ≥ 10°. The values pass through the URL so the page stays shareable.

No JS? Fill the form by hand. The geolocation button needs JavaScript.